SCP
0 0 0 0 0 0 0 0 0 0 0 0 0 0 0 0 0 0 0 0 0 0 0 0 0 0 0 0 0 0 0 0 0 0 0 0 0 0 0 0 0 0 0 0
0 0 0 0 0 0 0 0 0 0 0 0 0 0 0 -0 -0 0 0 0 0 0 0 0 0 0 0 0 0 0 0 0 0 0 0 0 0 0 0 0 0 0 0 0
0 0 0 0 0 0 0 0 0 0 0 0 0 0 0 0 0 0 0 0 0 0 0 0 0 0 0 0 0 0 0 0 0 0 0 0 0 0 0 0 0 0 0 0
0 0 0 0 0 0 0 0 0 0 0 0 0 0 0 0 0 0 0 0 0 0 0 0 0 0 0 0 0 0 0 0 0 0 0 0 0 0 0 0 0 0 0 0
0 0 0 0 0 0 0 0 0 0 0 0 -0 0 -0 0 0 0 0 0 0 0 0 0 0 0 0 0 0 0 0 0 0 0 0 0 0 0 0 0 0 0 0 0
0 0 0 0 0 0 0 0 0 0 0 0 -0 -0 0 0 0 0 0 0 0 0 0 0 0 0 0 0 0 0 0 0 0 0 0 0 0 0 0 0 0 0 0 0
0 0 0 0 0 0 0 0 0 0 0 0 0 0 0 0 0 0 0 0 0 0 0 0 0 0 0 0 0 0 0 0 -0 0 0 0 0 0 0 0 0 0 0 0
0 0 0 0 0 0 0 0 0 0 0 0 0 0 0 0 0 0 0 0 0 0 0 0 0 0 0 0 -0 -0 -0 -0 0 0 0 0 0 0 0 0 0 0 0 0
0 0 0 0 0 0 0 0 0 0 0 0 0 0 0 0 0 0 0 0 0 0 0 0 0 0 -0 -0 -0 -0 -0 -0 -0 -0 0 0 0 0 0 0 0 0 0 0
0 0 0 0 0 0 0 0 0 0 0 0 0 0 0 0 0 0 0 0 0 0 0 -0 -0 -0 -0 -0 -0 -0 -0 -0 -0 -0 -0 -0 -0 -0 -0 0 0 0 0 0
0 0 0 0 0 0 0 0 0 0 0 0 0 0 0 0 0 0 0 0 0 0 0 -0 -0 -0 -0 -0 -0 -0 -0 -0 -0 -0 -0 -0 -0 -0 -0 -0 -0 0 0 0
0 0 0 0 0 0 0 0 0 0 0 0 0 0 0 0 0 0 0 0 0 0 0 -0 -0 -0 -0 -0 0 0 0 0 0 -0 -0 -0 -0 -0 -0 -0 -0 -0 -0 0
0 0 0 0 0 0 0 0 0 0 0 0 0 0 0 0 0 0 0 0 0 -0 -0 -0 0 0 0 0 0 0 0 0 -0 -0 -0 -0 -0 -0 -0 0 -0 -0 -0 -0
0 0 0 0 0 0 0 0 0 0 0 0 0 0 0 0 0 0 0 -0 0 0 0 -0 -0 -0 0 0 0 0 0 -0 -0 -0 -0 -0 -0 -0 0 0 0 0 0 -0
0 0 0 0 0 0 0 0 0 0 0 0 0 0 0 0 0 0 -0 0 0 0 0 0 -0 -0 -0 -0 -0 -0 -0 -0 -0 0 0 0 0 0 0 0 0 0 0 0
0 0 0 0 0 0 0 0 0 0 0 0 0 0 0 0 0 0 0 0 0 0 0 0 0 0 -0 -0 -0 -0 -0 -0 -0 0 0 0 0 0 0 0 0 0 0 -0
0 0 0 0 0 0 0 0 0 0 0 0 0 0 0 0 0 0 0 0 0 0 0 0 0 0 -0 -0 0 0 0 0 0 0 0 0 0 0 0 0 0 0 0 0
0 0 0 0 0 0 0 0 0 0 0 0 0 0 0 0 0 0 0 0 0 0 0 0 0 0 0 0 0 0 0 0 0 0 0 0 0 0 0 0 0 0 0 0
0 0 0 0 0 0 0 0 0 0 0 0 0 0 0 0 0 0 0 0 0 0 0 0 0 0 0 0 0 0 0 0 0 0 0 0 0 0 0 0 0 0 0 0
0 0 0 0 0 0 0 0 0 0 0 0 0 0 0 0 0 0 0 0 0 0 0 0 0 0 0 0 0 0 0 0 0 0 0 0 0 0 0 0 0 0 0 0
0 0 0 0 0 0 0 0 0 0 0 0 0 0 0 0 0 0 0 0 0 0 0 0 0 0 0 0 0 0 0 0 0 0 0 0 0 0 0 0 0 0 0 0
0 0 0 0 0 0 0 0 0 0 0 0 0 0 0 0 0 0 0 0 0 0 0 0 0 0 0 0 0 0 0 0 0 0 0 0 0 0 0 0 0 0 0 0
0 0 0 0 0 0 0 0 0 0 0 0 0 0 0 0 0 0 0 0 0 0 0 0 0 0 0 0 0 0 0 0 0 0 0 0 0 0 0 0 0 0 0 0
0 0 0 0 0 0 0 0 0 0 0 0 0 0 0 0 0 0 0 0 0 0 0 0 0 0 0 0 0 0 0 0 0 0 0 0 0 0 0 0 0 0 0 0
0 0 0 0 0 0 0 0 0 0 0 0 0 0 0 0 0 0 0 0 0 0 0 0 0 0 0 0 0 0 0 0 0 0 0 0 0 0 0 0 0 0 0 0
0 0 0 0 0 0 0 0 0 0 0 0 0 0 0 0 0 0 0 0 0 0 0 0 0 0 0 0 0 0 0 0 0 0 0 0 0 0 0 0 0 0 0 0
Wind_Speed_500mb
19 7 13 21 22 22 9 17 22 24 22 20 18 22 21 46 58 45 49 14 47 61 55 48 38 35 37 34 26 19 11 4 6 9 19 27 38 41 45 48 53 59 63 68
4 13 24 13 16 17 17 20 23 17 14 17 17 27 39 34 39 45 13 30 54 56 46 39 38 42 46 44 41 31 24 17 13 4 6 10 14 17 30 37 41 45 51 62
18 16 18 9 14 19 20 21 21 18 15 16 14 16 12 18 7 49 57 65 58 49 42 39 42 46 43 42 42 40 34 26 20 13 6 4 4 11 20 23 33 41 43 45
15 9 5 10 15 14 17 2 5 11 9 5 13 9 12 22 16 30 51 57 50 40 37 39 42 46 47 45 38 35 33 29 26 22 18 16 13 12 15 22 26 30 37 38
3 13 9 10 12 9 9 5 8 12 9 10 16 8 10 14 18 25 37 46 40 34 35 39 42 43 43 41 42 39 37 34 33 31 27 24 22 21 22 23 23 23 31 44
16 5 6 8 6 6 10 6 15 15 10 4 15 12 10 8 25 15 30 36 34 32 34 36 35 34 35 33 31 30 31 33 33 32 29 28 27 29 29 29 30 31 29 31
7 18 9 10 2 5 4 5 7 5 4 9 14 10 9 11 20 29 35 39 33 29 30 29 31 33 35 37 37 36 33 31 31 30 32 32 34 34 35 37 40 40 38 36
7 7 21 11 9 3 12 7 7 9 2 10 18 10 9 19 43 52 48 40 33 28 26 25 25 26 27 29 31 33 35 36 35 32 31 29 27 29 34 38 40 40 40 40
4 7 7 8 5 9 2 6 3 4 2 2 10 12 9 24 26 36 37 35 29 22 18 18 19 21 22 26 27 30 31 29 29 31 32 31 29 28 27 28 36 43 44 44
4 8 10 5 6 8 1 5 1 3 5 9 11 7 3 17 20 20 19 21 16 11 10 11 12 11 21 23 25 26 28 28 31 33 34 31 29 32 33 33 34 37 44 49
8 2 5 12 7 7 3 3 4 4 7 6 9 9 13 16 14 18 15 10 5 4 8 13 16 19 20 23 28 30 33 35 37 40 41 41 48 53 48 45 43 43 45 48
6 4 10 14 16 17 8 13 11 8 8 9 16 28 14 20 24 26 9 5 13 14 11 16 17 19 21 29 33 37 40 43 48 53 56 60 56 54 55 56 57 57 57 55
8 4 5 16 1 12 8 6 5 7 1 29 27 26 8 25 24 9 7 18 14 12 13 18 22 23 28 33 37 43 48 50 54 60 61 61 59 62 64 62 61 63 66 65
5 6 9 15 18 13 8 13 13 6 6 9 27 33 46 49 24 9 9 1 2 8 18 22 22 28 35 39 41 45 53 57 60 62 64 66 68 70 73 75 72 70 68 69
4 7 9 21 18 6 9 26 34 26 32 22 47 41 46 32 29 12 3 4 4 12 21 23 24 33 36 36 39 43 50 59 63 67 69 70 75 79 82 85 89 89 88 83
3 6 4 11 9 19 29 42 34 38 38 38 39 45 31 20 8 10 20 18 19 25 27 27 28 34 40 37 42 43 46 58 63 70 74 77 78 80 83 87 92 96 98 98
11 7 4 12 5 8 16 30 36 29 34 28 32 24 7 3 7 8 14 18 29 32 29 34 43 46 43 50 57 57 58 59 60 67 78 88 84 85 90 93 96 99 100 101
9 11 6 8 9 6 15 6 3 11 16 9 11 6 9 5 5 20 25 33 29 35 46 50 51 52 55 56 52 56 62 67 66 81 79 84 89 92 97 96 96 98 101 106
24 11 4 5 11 16 32 11 4 5 11 4 9 6 14 7 31 33 30 34 47 52 53 51 52 54 58 61 67 66 68 76 90 83 77 77 80 85 89 96 106 111 116 120
3 13 9 4 9 15 8 8 14 8 9 5 11 7 4 17 11 18 44 53 54 49 42 45 53 64 69 72 73 83 90 85 79 76 79 81 81 85 87 92 99 104 105 113
5 2 21 23 16 12 3 19 12 9 14 9 14 15 11 8 33 53 47 53 46 42 47 55 65 73 78 83 85 90 95 101 93 87 89 95 99 97 97 99 99 96 96 103
12 11 10 3 5 14 5 11 12 8 6 8 20 33 42 47 48 45 42 43 55 60 64 71 76 84 86 87 93 104 109 108 108 109 108 110 112 113 112 108 110 103 97 103
4 15 8 14 10 4 13 15 21 28 37 55 54 53 46 43 46 45 50 54 57 62 69 75 77 84 90 97 98 105 110 108 111 111 111 109 108 105 99 94 92 89 83 85
9 31 6 5 12 36 59 60 57 60 61 65 66 58 49 45 42 47 52 53 57 63 68 73 82 91 98 98 97 98 102 104 105 105 103 97 92 90 85 83 82 80 79 79
17 0 12 9 26 49 57 62 62 66 61 52 44 43 42 40 42 46 48 52 56 61 68 75 83 87 92 92 95 96 96 94 95 93 91 89 85 83 86 84 81 79 80 80
41 36 18 20 44 38 44 54 48 41 45 47 44 41 40 41 41 44 47 47 53 63 70 75 77 80 86 89 91 92 88 85 85 87 86 85 87 88 85 85 88 75 73 75
Wind_Direction_500mb
191 209 209 228 235 253 343 311 301 305 302 289 300 314 305 278 271 291 290 342 81 83 77 77 76 82 90 90 96 112 125 45 279 269 247 245 246 256 259 260 257 256 259 263
132 227 237 336 341 325 310 287 282 275 304 337 311 294 276 274 270 267 238 90 93 76 73 80 75 75 75 80 79 82 89 97 95 130 314 291 279 271 261 271 274 271 265 265
228 264 330 314 284 281 270 276 294 308 339 276 300 275 258 282 310 77 88 83 81 83 77 70 69 68 69 67 61 59 60 63 66 68 69 19 296 286 290 286 283 281 283 275
245 235 231 265 259 248 278 80 3 308 340 274 33 278 296 281 100 85 79 73 72 73 79 76 66 63 61 61 62 64 58 55 50 43 35 27 17 358 334 316 306 301 299 295
225 164 191 218 236 165 238 171 232 248 251 308 240 248 249 119 113 102 85 82 81 74 69 62 64 64 61 56 53 50 48 51 52 48 41 29 16 359 338 326 318 300 290 295
257 343 239 235 240 230 49 308 270 253 222 260 247 197 291 88 143 113 102 97 88 80 68 60 55 53 49 42 40 35 30 23 20 15 11 4 357 353 345 338 328 318 303 292
189 215 202 205 241 135 110 294 311 295 146 208 58 353 270 22 134 143 123 105 93 78 65 53 42 33 28 23 20 18 16 15 12 7 2 -0 358 355 350 347 344 337 323 302
240 294 165 176 217 41 182 221 171 249 287 295 340 261 244 112 96 102 105 105 93 77 62 49 36 27 22 17 9 2 356 352 351 349 349 350 349 346 343 342 343 343 339 329
269 207 115 178 156 142 162 192 17 322 270 54 217 235 259 110 99 106 104 91 83 73 56 46 32 17 12 11 12 10 8 0 359 359 355 352 357 354 356 342 332 325 326 327
14 310 227 46 79 48 31 335 315 233 257 241 260 292 255 124 124 110 89 97 92 73 69 61 50 38 21 11 13 10 11 3 360 360 359 360 1 7 3 354 340 327 320 320
66 190 247 1 177 226 185 206 212 275 199 244 276 257 141 122 124 112 104 103 76 41 18 2 6 7 2 356 2 2 359 355 349 347 348 348 356 356 351 349 345 338 331 325
84 125 265 238 302 308 261 231 238 228 243 227 246 264 74 106 108 96 54 322 319 332 359 357 3 349 343 352 350 349 345 343 340 337 339 342 343 339 336 336 335 333 331 330
143 213 334 328 245 25 64 337 289 330 39 256 261 261 346 130 146 140 244 257 263 282 308 314 311 324 330 334 337 338 338 337 335 334 332 329 330 326 324 323 322 323 325 326
65 190 188 234 256 18 275 273 269 323 283 311 272 292 289 294 311 352 58 118 179 338 319 291 284 293 306 311 315 325 331 334 332 326 322 320 320 317 316 314 314 313 314 314
18 249 203 254 288 322 242 262 269 267 261 249 272 277 272 291 302 69 94 128 19 335 332 333 291 282 284 285 291 302 313 323 324 320 318 315 312 311 312 311 311 310 309 308
56 263 58 279 229 267 273 262 266 262 263 261 265 270 288 325 30 43 46 25 344 318 311 310 311 312 297 293 297 297 294 295 308 313 312 311 308 306 304 305 304 303 303 303
164 163 108 263 125 3 300 253 247 254 257 258 263 274 354 241 110 40 13 333 309 310 320 323 322 315 302 301 301 296 294 291 290 291 295 303 304 300 299 300 299 298 297 296
181 140 145 255 57 246 249 59 327 248 270 308 281 185 182 161 343 331 333 314 321 327 322 316 313 311 306 306 299 291 286 292 292 297 292 292 296 298 300 299 297 295 294 294
223 197 249 194 206 297 303 308 83 93 281 178 229 233 178 217 330 314 327 317 314 309 307 307 312 309 305 302 301 298 295 297 303 302 295 292 290 288 289 289 291 292 292 291
270 198 178 154 202 219 232 165 127 130 278 11 127 128 104 323 311 293 309 308 303 300 305 306 300 299 300 304 303 302 304 306 303 300 296 292 288 288 286 283 282 283 283 285
102 5 212 230 243 271 150 147 124 105 261 154 160 170 231 244 275 292 301 306 301 300 298 297 303 305 307 309 311 310 310 309 308 301 295 293 291 288 285 283 280 282 282 280
153 160 214 184 230 273 73 106 164 213 157 193 236 274 292 296 294 291 302 299 293 295 303 308 310 311 312 314 313 310 308 309 306 305 303 301 299 298 296 294 293 288 283 281
257 203 191 174 203 213 214 235 261 279 281 289 289 295 298 288 287 292 297 300 297 302 309 311 313 312 312 312 313 311 312 311 309 307 307 307 306 306 307 305 303 297 290 284
256 242 217 47 251 262 269 272 278 284 284 286 288 290 284 282 286 293 298 300 305 310 312 312 312 311 311 314 317 316 315 314 312 310 310 311 310 311 311 310 306 299 292 288
218 75 221 256 251 263 267 268 273 275 276 277 284 280 279 283 288 294 297 304 309 310 311 312 313 313 315 320 319 319 319 318 315 313 312 311 311 310 307 303 300 296 295 292
230 239 243 249 259 257 265 276 281 283 287 288 284 278 279 285 291 294 299 304 307 311 315 315 316 319 323 322 321 324 326 323 318 313 312 310 309 309 306 303 302 299 292 291
Wind_Speed_850mb
19 7 13 21 22 22 9 17 22 24 22 20 18 22 21 46 58 45 49 14 47 61 55 48 38 35 37 34 26 19 11 4 6 9 19 27 38 41 45 48 53 59 63 68
4 13 24 13 16 17 17 20 23 17 14 17 17 27 39 34 39 45 13 30 54 56 46 39 38 42 46 44 41 31 24 17 13 4 6 10 14 17 30 37 41 45 51 62
18 16 18 9 14 19 20 21 21 18 15 16 14 16 12 18 7 49 57 65 58 49 42 39 42 46 43 42 42 40 34 26 20 13 6 4 4 11 20 23 33 41 43 45
15 9 5 10 15 14 17 2 5 11 9 5 13 9 12 22 16 30 51 57 50 40 37 39 42 46 47 45 38 35 33 29 26 22 18 16 13 12 15 22 26 30 37 38
3 13 9 10 12 9 9 5 8 12 9 10 16 8 10 14 18 25 37 46 40 34 35 39 42 43 43 41 42 39 37 34 33 31 27 24 22 21 22 23 23 23 31 44
16 5 6 8 6 6 10 6 15 15 10 4 15 12 10 8 25 15 30 36 34 32 34 36 35 34 35 33 31 30 31 33 33 32 29 28 27 29 29 29 30 31 29 31
7 18 9 10 2 5 4 5 7 5 4 9 14 10 9 11 20 29 35 39 33 29 30 29 31 33 35 37 37 36 33 31 31 30 32 32 34 34 35 37 40 40 38 36
7 7 21 11 9 3 12 7 7 9 2 10 18 10 9 19 43 52 48 40 33 28 26 25 25 26 27 29 31 33 35 36 35 32 31 29 27 29 34 38 40 40 40 40
4 7 7 8 5 9 2 6 3 4 2 2 10 12 9 24 26 36 37 35 29 22 18 18 19 21 22 26 27 30 31 29 29 31 32 31 29 28 27 28 36 43 44 44
4 8 10 5 6 8 1 5 1 3 5 9 11 7 3 17 20 20 19 21 16 11 10 11 12 11 21 23 25 26 28 28 31 33 34 31 29 32 33 33 34 37 44 49
8 2 5 12 7 7 3 3 4 4 7 6 9 9 13 16 14 18 15 10 5 4 8 13 16 19 20 23 28 30 33 35 37 40 41 41 48 53 48 45 43 43 45 48
6 4 10 14 16 17 8 13 11 8 8 9 16 28 14 20 24 26 9 5 13 14 11 16 17 19 21 29 33 37 40 43 48 53 56 60 56 54 55 56 57 57 57 55
8 4 5 16 1 12 8 6 5 7 1 29 27 26 8 25 24 9 7 18 14 12 13 18 22 23 28 33 37 43 48 50 54 60 61 61 59 62 64 62 61 63 66 65
5 6 9 15 18 13 8 13 13 6 6 9 27 33 46 49 24 9 9 1 2 8 18 22 22 28 35 39 41 45 53 57 60 62 64 66 68 70 73 75 72 70 68 69
4 7 9 21 18 6 9 26 34 26 32 22 47 41 46 32 29 12 3 4 4 12 21 23 24 33 36 36 39 43 50 59 63 67 69 70 75 79 82 85 89 89 88 83
3 6 4 11 9 19 29 42 34 38 38 38 39 45 31 20 8 10 20 18 19 25 27 27 28 34 40 37 42 43 46 58 63 70 74 77 78 80 83 87 92 96 98 98
11 7 4 12 5 8 16 30 36 29 34 28 32 24 7 3 7 8 14 18 29 32 29 34 43 46 43 50 57 57 58 59 60 67 78 88 84 85 90 93 96 99 100 101
9 11 6 8 9 6 15 6 3 11 16 9 11 6 9 5 5 20 25 33 29 35 46 50 51 52 55 56 52 56 62 67 66 81 79 84 89 92 97 96 96 98 101 106
24 11 4 5 11 16 32 11 4 5 11 4 9 6 14 7 31 33 30 34 47 52 53 51 52 54 58 61 67 66 68 76 90 83 77 77 80 85 89 96 106 111 116 120
3 13 9 4 9 15 8 8 14 8 9 5 11 7 4 17 11 18 44 53 54 49 42 45 53 64 69 72 73 83 90 85 79 76 79 81 81 85 87 92 99 104 105 113
5 2 21 23 16 12 3 19 12 9 14 9 14 15 11 8 33 53 47 53 46 42 47 55 65 73 78 83 85 90 95 101 93 87 89 95 99 97 97 99 99 96 96 103
12 11 10 3 5 14 5 11 12 8 6 8 20 33 42 47 48 45 42 43 55 60 64 71 76 84 86 87 93 104 109 108 108 109 108 110 112 113 112 108 110 103 97 103
4 15 8 14 10 4 13 15 21 28 37 55 54 53 46 43 46 45 50 54 57 62 69 75 77 84 90 97 98 105 110 108 111 111 111 109 108 105 99 94 92 89 83 85
9 31 6 5 12 36 59 60 57 60 61 65 66 58 49 45 42 47 52 53 57 63 68 73 82 91 98 98 97 98 102 104 105 105 103 97 92 90 85 83 82 80 79 79
17 0 12 9 26 49 57 62 62 66 61 52 44 43 42 40 42 46 48 52 56 61 68 75 83 87 92 92 95 96 96 94 95 93 91 89 85 83 86 84 81 79 80 80
41 36 18 20 44 38 44 54 48 41 45 47 44 41 40 41 41 44 47 47 53 63 70 75 77 80 86 89 91 92 88 85 85 87 86 85 87 88 85 85 88 75 73 75
Wind_Direction_850mb
191 209 209 228 235 253 343 311 301 305 302 289 300 314 305 278 271 291 290 342 81 83 77 77 76 82 90 90 96 112 125 45 279 269 247 245 246 256 259 260 257 256 259 263
132 227 237 336 341 325 310 287 282 275 304 337 311 294 276 274 270 267 238 90 93 76 73 80 75 75 75 80 79 82 89 97 95 130 314 291 279 271 261 271 274 271 265 265
228 264 330 314 284 281 270 276 294 308 339 276 300 275 258 282 310 77 88 83 81 83 77 70 69 68 69 67 61 59 60 63 66 68 69 19 296 286 290 286 283 281 283 275
245 235 231 265 259 248 278 80 3 308 340 274 33 278 296 281 100 85 79 73 72 73 79 76 66 63 61 61 62 64 58 55 50 43 35 27 17 358 334 316 306 301 299 295
225 164 191 218 236 165 238 171 232 248 251 308 240 248 249 119 113 102 85 82 81 74 69 62 64 64 61 56 53 50 48 51 52 48 41 29 16 359 338 326 318 300 290 295
257 343 239 235 240 230 49 308 270 253 222 260 247 197 291 88 143 113 102 97 88 80 68 60 55 53 49 42 40 35 30 23 20 15 11 4 357 353 345 338 328 318 303 292
189 215 202 205 241 135 110 294 311 295 146 208 58 353 270 22 134 143 123 105 93 78 65 53 42 33 28 23 20 18 16 15 12 7 2 -0 358 355 350 347 344 337 323 302
240 294 165 176 217 41 182 221 171 249 287 295 340 261 244 112 96 102 105 105 93 77 62 49 36 27 22 17 9 2 356 352 351 349 349 350 349 346 343 342 343 343 339 329
269 207 115 178 156 142 162 192 17 322 270 54 217 235 259 110 99 106 104 91 83 73 56 46 32 17 12 11 12 10 8 0 359 359 355 352 357 354 356 342 332 325 326 327
14 310 227 46 79 48 31 335 315 233 257 241 260 292 255 124 124 110 89 97 92 73 69 61 50 38 21 11 13 10 11 3 360 360 359 360 1 7 3 354 340 327 320 320
66 190 247 1 177 226 185 206 212 275 199 244 276 257 141 122 124 112 104 103 76 41 18 2 6 7 2 356 2 2 359 355 349 347 348 348 356 356 351 349 345 338 331 325
84 125 265 238 302 308 261 231 238 228 243 227 246 264 74 106 108 96 54 322 319 332 359 357 3 349 343 352 350 349 345 343 340 337 339 342 343 339 336 336 335 333 331 330
143 213 334 328 245 25 64 337 289 330 39 256 261 261 346 130 146 140 244 257 263 282 308 314 311 324 330 334 337 338 338 337 335 334 332 329 330 326 324 323 322 323 325 326
65 190 188 234 256 18 275 273 269 323 283 311 272 292 289 294 311 352 58 118 179 338 319 291 284 293 306 311 315 325 331 334 332 326 322 320 320 317 316 314 314 313 314 314
18 249 203 254 288 322 242 262 269 267 261 249 272 277 272 291 302 69 94 128 19 335 332 333 291 282 284 285 291 302 313 323 324 320 318 315 312 311 312 311 311 310 309 308
56 263 58 279 229 267 273 262 266 262 263 261 265 270 288 325 30 43 46 25 344 318 311 310 311 312 297 293 297 297 294 295 308 313 312 311 308 306 304 305 304 303 303 303
164 163 108 263 125 3 300 253 247 254 257 258 263 274 354 241 110 40 13 333 309 310 320 323 322 315 302 301 301 296 294 291 290 291 295 303 304 300 299 300 299 298 297 296
181 140 145 255 57 246 249 59 327 248 270 308 281 185 182 161 343 331 333 314 321 327 322 316 313 311 306 306 299 291 286 292 292 297 292 292 296 298 300 299 297 295 294 294
223 197 249 194 206 297 303 308 83 93 281 178 229 233 178 217 330 314 327 317 314 309 307 307 312 309 305 302 301 298 295 297 303 302 295 292 290 288 289 289 291 292 292 291
270 198 178 154 202 219 232 165 127 130 278 11 127 128 104 323 311 293 309 308 303 300 305 306 300 299 300 304 303 302 304 306 303 300 296 292 288 288 286 283 282 283 283 285
102 5 212 230 243 271 150 147 124 105 261 154 160 170 231 244 275 292 301 306 301 300 298 297 303 305 307 309 311 310 310 309 308 301 295 293 291 288 285 283 280 282 282 280
153 160 214 184 230 273 73 106 164 213 157 193 236 274 292 296 294 291 302 299 293 295 303 308 310 311 312 314 313 310 308 309 306 305 303 301 299 298 296 294 293 288 283 281
257 203 191 174 203 213 214 235 261 279 281 289 289 295 298 288 287 292 297 300 297 302 309 311 313 312 312 312 313 311 312 311 309 307 307 307 306 306 307 305 303 297 290 284
256 242 217 47 251 262 269 272 278 284 284 286 288 290 284 282 286 293 298 300 305 310 312 312 312 311 311 314 317 316 315 314 312 310 310 311 310 311 311 310 306 299 292 288
218 75 221 256 251 263 267 268 273 275 276 277 284 280 279 283 288 294 297 304 309 310 311 312 313 313 315 320 319 319 319 318 315 313 312 311 311 310 307 303 300 296 295 292
230 239 243 249 259 257 265 276 281 283 287 288 284 278 279 285 291 294 299 304 307 311 315 315 316 319 323 322 321 324 326 323 318 313 312 310 309 309 306 303 302 299 292 291